Location: Hardenberg
(52.5670°N, 6.6170°E)
Time: 19:52:22
(UTC+02:00)

ISS - Pass Details

Date: 19 May 2021
Orbit: 417 x 422 km, 51.6° (Epoch: 12 June)

Event Time Altitude Azimuth Distance (km) Brightness Sun altitude
Rises 23:41:18 0° 266° (W) 2,366 0.4 -13.7°
Reaches altitude 10° 23:43:24 10° 265° (W) 1,503 -0.7 -13.9°
Maximum altitude 23:46:46 78° 180° (S) 435 -3.9 -14.1°
Drops below altitude 10° 23:50:09 10° 93° (E) 1,506 -1.2 -14.3°
Enters shadow 23:50:20 - 93° (E) 1,580 -1.1 -14.3°
